Home   Weather   St. Augustine   Past weeks

Flag for USA Past Weather in St. Augustine, Florida, USA — Yesterday and Last 2 Weeks

Now
73 °F

Clear.


Feels Like: 70 °F
Forecast: 74 / 86 °F
Wind: 3 mph from Southwest

Location: St. Augustine Airport

Current Time: Sep 28, 2016 at 8:05:20 AM

Latest Report: Sep 28, 2016 at 6:58 AM


Visibility: 10 mi

Pressure: 29.96 "Hg

Humidity: 94%

Dew Point: 71 °F

Location of St. AugustineLocation

Past Weather in St. Augustine — Graph

°F

St. Augustine Temperature Yesterday

Maximum temperature yesterday: 85 °F (at 2:58 PM)
Minimum temperature yesterday: 72 °F (at 8:00 AM)
Average temperature yesterday: 78 °F

High & Low Weather Summary for the Past Weeks

 TemperatureHumidityPressure
High88 °F (Sep 19, 1:58 PM)100% (Sep 27, 8:00 AM)30.10 "Hg (Sep 27, 8:00 AM)
Low72 °F (Sep 27, 8:00 AM)59% (Sep 24, 11:58 AM)29.89 "Hg (Sep 13, 8:58 PM)
Average80 °F81%30.00 "Hg
* Reported Sep 13 5:58 AM — Sep 28 5:58 AM, St. Augustine, Weather by CustomWeather, © 2016

Note: Actual official high and low records may vary slightly from our data, if they occured in-between our weather recording intervals... More about our weather records

Advertising

St. Augustine Weather History for the Previous 24 Hours

Scroll right to see more
 ConditionsComfort  
Time TempWeatherWind HumidityBarometerVisibility
5:58 AM
Wed, Sep 28
73 °FClear.6 mph94%29.96 "Hg10 mi
4:58 AM73 °FClear.5 mph90%29.95 "Hg10 mi
3:58 AM74 °FClear.6 mph88%29.94 "Hg10 mi
2:58 AM74 °FClear.5 mph88%29.94 "Hg10 mi
1:58 AM74 °FClear.5 mph91%29.94 "Hg10 mi
12:58 AM75 °FClear.5 mph88%29.95 "Hg10 mi
11:58 PM
Tue, Sep 27
75 °FClear.No wind88%29.96 "Hg10 mi
10:58 PM77 °FClear.5 mph82%29.96 "Hg10 mi
9:58 PM80 °FPassing clouds.5 mph76%29.95 "Hg10 mi
8:58 PM81 °FClear.6 mph74%29.92 "Hg10 mi
7:58 PM81 °FClear.6 mph72%29.90 "Hg10 mi
6:58 PM82 °FSunny.6 mph67%29.89 "Hg10 mi
5:58 PM83 °FSunny.7 mph68%29.90 "Hg10 mi
4:58 PM84 °FSunny.12 mph65%29.89 "Hg7 mi
3:58 PM85 °FScattered clouds.12 mph65%29.90 "Hg7 mi
2:58 PM85 °FPartly sunny.10 mph63%29.90 "Hg7 mi
1:58 PM84 °FPartly sunny.9 mph67%29.92 "Hg7 mi
12:58 PM83 °FPartly sunny.6 mph70%29.95 "Hg10 mi
12:02 PM84 °FPartly sunny.7 mph62%29.96 "Hg10 mi
10:58 AM80 °FPartly sunny.No wind76%29.96 "Hg10 mi
9:57 AM77 °FScattered clouds.5 mph85%29.96 "Hg10 mi
8:58 AM75 °FFog.6 mph94%29.94 "Hg6 mi
8:04 AM72 °FFog.5 mph100%29.94 "Hg1 mi
8:00 AM72 °FFog.6 mph100%29.94 "Hg1 mi
Weather by CustomWeather, © 2016

See weather overviewHow to use our weather pages